Location: Fernhill
(41.0167°S, 175.6333°E)
Time: 12:16:27
(UTC+00:00)

SPOT 3 Rocket - Pass Details

Date: 08 November 2025
Orbit: 775 x 790 km, 98.5° (Epoch: 10 December)

Event Time Altitude Azimuth Distance (km) Brightness Sun altitude
Rises 10:56:33 0° 170° (S) 3,293 7.7 -30.4°
Reaches altitude 10° 10:58:53 10° 172° (S) 2,359 6.8 -30.5°
Enters shadow 11:03:15 58° 205° (SSW) 916 4.0 -30.7°
